Tracking 28790 objects as of 19-Apr-2024
HD Live streaming from Space Station
objects crossing your sky now

STARLINK-1989

Track STARLINK-1989 now!
10-day predictions
STARLINK-1989 is classified as:


NORAD ID: 47585
Int'l Code: 2021-009AP
Perigee: 553.4 km
Apogee: 555.4 km
Inclination: 53.1 °
Period: 95.6 minutes
Semi major axis: 6925 km
RCS: Unknown
Launch date: February 4, 2021
Source: United States (US)
Launch site: AIR FORCE EASTERN TEST RANGE (AFETR)
Your satellite tracking list
Your tracking list is empty




NASA's NSSDC Master Catalog

Two Line Element Set (TLE):
1 47585U 21009AP  24109.61834511 -.00000119  00000-0  10911-4 0  9994
2 47585  53.0550 239.4676 0001451  82.1339 277.9815 15.06388020176784
Source of the keplerian elements: AFSPC